Weather in Chanda Nagar

India     17°29′42″N   78°19′32″E
temp.,
°C
wind,
m/s
gust,
m/s
humid.,
%
clouds,
%
prec.,
mm/h
press.,
hPa
HPBL,
m
24 july, sat
sat2423:30+22wsw71490100 0.0 1004628
02:30+22w61491100 0.0 1002533
05:30+22w61491100 0.0 1003518
08:30+23w7148597 0.0 1005697
11:30+28w81066100 0.0 10041389
14:30+28w81068100 0.5 10021173
17:30+27w71172100 1.4 10021050
20:30+24w61283100 0.6 1004493
25 july, sun
sun2523:30+24wsw8158538 1.9 1005615
02:30+23w7149052 0.0 1004628
05:30+22w6149192 0.0 1005617
08:30+24w8128269 0.0 1006796
11:30+26w8117476 0.1 10061154
14:30+27w71072100 0.1 10041376
17:30+27w7117020 0.1 10031084
20:30+25w5127597 0.1 1005426
26 july, mon
mon2623:30+24wsw5138142 0.1 1006534
02:30+23wsw7138859 0.0 1005603
05:30+22wsw6148952 0.0 1006641
08:30+25w71275100 0.0 10071111
11:30+27w81169100 0.1 10071270
14:30+27w8117096 0.1 10051175
17:30+27w6117196 0.1 10041198
20:30+25wsw51279100 0.0 1006526
27 july, tue
tue2723:30+24wsw7148162 0.0 1006697
02:30+22w7148834 0.0 1005650
05:30+22w71489100 0.0 1006674
08:30+24w9137866 0.0 1006857
11:30+28w9126393 0.0 10051361
14:30+29w91257100 0.0 10031755
17:30+27w7116938 0.3 10041081
20:30+25w51174100 0.1 1006478
28 july, wed
wed2823:30+24wsw6147899 0.1 1007638
02:30+22w7148461 0.0 1005669
05:30+21w7148899 0.0 1005689
08:30+24w81379100 0.0 1007808
11:30+27w9116295 0.0 10061255
14:30+29w91154100 0.0 10041900
17:30+26w6126789 0.0 1004854
20:30+26w71369100 0.1 1006744